N269KM KCAK-KCLE

Flight info

Callsign N269KM
Flight time 0h 21m
Altitude 2500
Route X
Aircraft C172/L-ICAO/1200

Departure

Time 2026-04-23 18:42
Airport Akron Canton Regional Airport (KCAK)

Arrival

Time 2026-04-23 19:03
Airport Cleveland Hopkins International Airport (KCLE)
Time Latitude Longitude Altitude Speed Heading
2026-04-23 18:33 40.92024 -81.43150 1228 ft 0 kts 261°
2026-04-23 18:38 40.92000 -81.43268 1229 ft 23 kts 239°
2026-04-23 18:39 40.91937 -81.43401 1229 ft 4 kts 250°
2026-04-23 18:39 40.91933 -81.43466 1229 ft 8 kts 296°
2026-04-23 18:39 40.91951 -81.43482 1229 ft 1 kts 353°
2026-04-23 18:39 40.91955 -81.43483 1229 ft 0 kts 357°
2026-04-23 18:40 40.91957 -81.43483 1229 ft 5 kts 355°
2026-04-23 18:40 40.91995 -81.43625 1227 ft 35 kts 230°
2026-04-23 18:40 40.91726 -81.43983 1217 ft 74 kts 226°
2026-04-23 18:41 40.91335 -81.44553 1301 ft 89 kts 227°
2026-04-23 18:41 40.90908 -81.45142 1521 ft 85 kts 229°
2026-04-23 18:41 40.90657 -81.45834 1725 ft 90 kts 273°
2026-04-23 18:41 40.91037 -81.46477 1825 ft 99 kts 323°
2026-04-23 18:42 40.91709 -81.46864 1881 ft 110 kts 333°
2026-04-23 18:42 40.92405 -81.47302 2062 ft 111 kts 327°
2026-04-23 18:42 40.93013 -81.47884 2121 ft 111 kts 302°
2026-04-23 18:42 40.93573 -81.48614 2348 ft 112 kts 324°
2026-04-23 18:43 40.94278 -81.49036 2534 ft 116 kts 327°
2026-04-23 18:43 40.95013 -81.49363 2647 ft 115 kts 339°
2026-04-23 18:43 40.95708 -81.49689 2949 ft 107 kts 335°
2026-04-23 18:43 40.96430 -81.50016 2931 ft 109 kts 339°
2026-04-23 18:44 40.97175 -81.50250 3005 ft 110 kts 343°
2026-04-23 18:44 40.97991 -81.50533 2917 ft 124 kts 344°
2026-04-23 18:44 40.98843 -81.50817 2708 ft 129 kts 342°
2026-04-23 18:44 40.99713 -81.51088 2652 ft 128 kts 344°
2026-04-23 18:45 41.00554 -81.51460 2502 ft 125 kts 326°
2026-04-23 18:45 41.01242 -81.52095 2375 ft 119 kts 322°
2026-04-23 18:45 41.01918 -81.52735 2211 ft 120 kts 318°
2026-04-23 18:45 41.02581 -81.53412 2157 ft 117 kts 319°
2026-04-23 18:46 41.03220 -81.53996 2194 ft 110 kts 322°
2026-04-23 18:46 41.03860 -81.54585 2115 ft 116 kts 326°
2026-04-23 18:46 41.04586 -81.55121 1978 ft 121 kts 328°
2026-04-23 18:46 41.05294 -81.55603 2019 ft 109 kts 329°
2026-04-23 18:47 41.05936 -81.56147 1968 ft 107 kts 318°
2026-04-23 18:47 41.06576 -81.56684 2014 ft 108 kts 331°
2026-04-23 18:47 41.07250 -81.57141 2052 ft 107 kts 328°
2026-04-23 18:47 41.07922 -81.57638 1972 ft 109 kts 327°
2026-04-23 18:48 41.08539 -81.58170 2061 ft 103 kts 320°
2026-04-23 18:48 41.09096 -81.58760 2053 ft 105 kts 323°
2026-04-23 18:48 41.09752 -81.59283 1986 ft 116 kts 326°
2026-04-23 18:48 41.10435 -81.59828 2073 ft 111 kts 326°
2026-04-23 18:49 41.11086 -81.60379 2189 ft 111 kts 324°
2026-04-23 18:49 41.11723 -81.60932 2138 ft 112 kts 322°
2026-04-23 18:49 41.12373 -81.61514 2103 ft 116 kts 322°
2026-04-23 18:49 41.13043 -81.62087 2077 ft 115 kts 325°
2026-04-23 18:50 41.13486 -81.62466 2075 ft 115 kts 322°
2026-04-23 18:50 41.14291 -81.63283 2102 ft 110 kts 319°
2026-04-23 18:50 41.14931 -81.63893 2082 ft 116 kts 321°
2026-04-23 18:50 41.15573 -81.64512 2166 ft 113 kts 320°
2026-04-23 18:51 41.16171 -81.65147 2215 ft 109 kts 320°
2026-04-23 18:51 41.16791 -81.65748 2105 ft 113 kts 321°
2026-04-23 18:51 41.17424 -81.66337 2164 ft 109 kts 326°
2026-04-23 18:51 41.18092 -81.66873 2116 ft 114 kts 324°
2026-04-23 18:52 41.18729 -81.67455 2155 ft 108 kts 322°
2026-04-23 18:52 41.19357 -81.68016 2106 ft 114 kts 325°
2026-04-23 18:52 41.20041 -81.68517 2139 ft 107 kts 327°
2026-04-23 18:52 41.20735 -81.68968 2067 ft 117 kts 329°
2026-04-23 18:53 41.21448 -81.69506 2089 ft 119 kts 326°
2026-04-23 18:53 41.22161 -81.70093 2168 ft 118 kts 324°
2026-04-23 18:53 41.22826 -81.70703 2253 ft 116 kts 322°
2026-04-23 18:53 41.23524 -81.71306 2401 ft 121 kts 324°
2026-04-23 18:54 41.24228 -81.71943 2416 ft 125 kts 322°
2026-04-23 18:54 41.24961 -81.72582 2321 ft 125 kts 324°
2026-04-23 18:54 41.25685 -81.73192 2266 ft 128 kts 324°
2026-04-23 18:54 41.26438 -81.73839 2212 ft 125 kts 324°
2026-04-23 18:55 41.27155 -81.74463 2212 ft 123 kts 324°
2026-04-23 18:55 41.27866 -81.75083 2217 ft 123 kts 323°
2026-04-23 18:55 41.28588 -81.75718 2226 ft 122 kts 322°
2026-04-23 18:55 41.29284 -81.76317 2220 ft 121 kts 327°
2026-04-23 18:56 41.29768 -81.76725 2149 ft 126 kts 327°
2026-04-23 18:56 41.30771 -81.77544 1986 ft 128 kts 322°
2026-04-23 18:56 41.31482 -81.78221 1968 ft 124 kts 326°
2026-04-23 18:56 41.32214 -81.78804 1901 ft 123 kts 326°
2026-04-23 18:57 41.32934 -81.79406 1947 ft 120 kts 325°
2026-04-23 18:57 41.33634 -81.80004 1930 ft 122 kts 323°
2026-04-23 18:57 41.34334 -81.80630 1924 ft 120 kts 322°
2026-04-23 18:57 41.34967 -81.81311 1992 ft 115 kts 318°
2026-04-23 18:58 41.35594 -81.81960 2067 ft 115 kts 324°
2026-04-23 18:58 41.36275 -81.82535 2038 ft 116 kts 327°
2026-04-23 18:58 41.37007 -81.83016 2016 ft 116 kts 332°
2026-04-23 18:58 41.37668 -81.83635 1947 ft 115 kts 316°
2026-04-23 18:59 41.38286 -81.84313 1753 ft 119 kts 330°
2026-04-23 18:59 41.39087 -81.84502 1709 ft 123 kts 23°
2026-04-23 18:59 41.39765 -81.83779 1534 ft 125 kts 48°
2026-04-23 18:59 41.40269 -81.82895 1579 ft 114 kts 51°
2026-04-23 19:00 41.40737 -81.82042 1532 ft 115 kts 51°
2026-04-23 19:00 41.41278 -81.81326 1579 ft 100 kts 24°
2026-04-23 19:00 41.41907 -81.80912 1617 ft 99 kts 22°
2026-04-23 19:00 41.42564 -81.80667 1657 ft 95 kts 347°
2026-04-23 19:01 41.42611 -81.81312 1503 ft 110 kts 201°
2026-04-23 19:01 41.42163 -81.80715 1447 ft 108 kts 74°
2026-04-23 19:01 41.42561 -81.79880 1471 ft 104 kts 48°
2026-04-23 19:01 41.43106 -81.79597 1615 ft 89 kts 318°
2026-04-23 19:02 41.43111 -81.80118 1520 ft 105 kts 228°
2026-04-23 19:02 41.42740 -81.81156 1488 ft 103 kts 278°
2026-04-23 19:02 41.42767 -81.82130 1446 ft 107 kts 268°
2026-04-23 19:02 41.42313 -81.82972 1291 ft 123 kts 229°
2026-04-23 19:03 41.41811 -81.83723 1166 ft 98 kts 232°
2026-04-23 19:03 41.41399 -81.84399 938 ft 90 kts 237°
2026-04-23 19:03 41.41023 -81.85009 791 ft 77 kts 231°
2026-04-23 19:03 41.40753 -81.85440 776 ft 31 kts 228°
2026-04-23 19:04 41.40677 -81.85510 778 ft 3 kts 153°
2026-04-23 19:04 41.40672 -81.85505 778 ft 3 kts 126°
2026-04-23 19:04 41.40664 -81.85463 778 ft 3 kts 95°
2026-04-23 19:04 41.40664 -81.85442 778 ft 0 kts 93°
2026-04-23 19:05 41.40629 -81.85420 779 ft 15 kts 214°
2026-04-23 19:05 41.40542 -81.85519 778 ft 17 kts 178°
2026-04-23 19:05 41.40424 -81.85470 781 ft 21 kts 162°
2026-04-23 19:05 41.40306 -81.85420 786 ft 11 kts 166°
2026-04-23 19:06 41.40236 -81.85397 786 ft 9 kts 89°
2026-04-23 19:06 41.40237 -81.85388 786 ft 0 kts 91°
2026-04-23 19:06 41.40237 -81.85385 786 ft 0 kts 89°